Total_Precipitation_Accumulation
0.69 0.54 0.38 0.17 0.10 0.09 0.06 0.02 0.01 0.04 0.08 0.15 0.20 0.10 0.08 0.04 0.02 0.01 0.01 0.01 0.00 0.00 0.00 0.00 0.00 0.00 0.00 0.00 0.00 0.00 0.00 0.00 0.00 0.00 0.00 0.00 0.00 0.00 0.00 0.00 0.00 0.00 0.00
0.50 0.50 0.41 0.30 0.13 0.10 0.08 0.03 0.03 0.03 0.05 0.08 0.20 0.16 0.09 0.06 0.03 0.00 0.00 0.01 0.01 0.00 0.00 0.01 0.00 0.01 0.00 0.00 0.00 0.00 0.00 0.00 0.00 0.00 0.00 0.00 0.00 0.00 0.00 0.00 0.00 0.00 0.00
0.98 0.69 0.42 0.47 0.29 0.12 0.07 0.05 0.03 0.03 0.04 0.09 0.13 0.10 0.10 0.10 0.06 0.03 0.03 0.02 0.00 0.00 0.00 0.01 0.01 0.02 0.02 0.00 0.00 0.00 0.00 0.00 0.00 0.00 0.00 0.00 0.00 0.00 0.00 0.00 0.00 0.00 0.00
0.81 0.89 0.58 0.46 0.36 0.18 0.08 0.06 0.05 0.03 0.02 0.08 0.10 0.07 0.03 0.12 0.08 0.06 0.05 0.03 0.02 0.01 0.01 0.00 0.01 0.01 0.01 0.00 0.00 0.00 0.00 0.00 0.00 0.00 0.00 0.00 0.00 0.00 0.00 0.00 0.00 0.00 0.00
0.45 0.44 0.48 0.47 0.41 0.21 0.15 0.08 0.09 0.09 0.04 0.04 0.12 0.10 0.05 0.13 0.07 0.04 0.03 0.02 0.02 0.01 0.01 0.01 0.00 0.00 0.01 0.01 0.01 0.01 0.00 0.00 0.00 0.00 0.00 0.00 0.00 0.00 0.00 0.00 0.00 0.00 0.00
0.20 0.25 0.27 0.36 0.43 0.31 0.14 0.09 0.08 0.10 0.08 0.07 0.06 0.06 0.06 0.03 0.03 0.08 0.10 0.06 0.03 0.02 0.01 0.01 0.01 0.01 0.02 0.02 0.01 0.01 0.01 0.00 0.00 0.00 0.00 0.00 0.00 0.00 0.00 0.00 0.00 0.00 0.00
0.22 0.18 0.25 0.29 0.38 0.31 0.20 0.12 0.08 0.06 0.09 0.10 0.09 0.13 0.06 0.02 0.07 0.04 0.10 0.11 0.05 0.03 0.02 0.02 0.02 0.02 0.03 0.02 0.02 0.01 0.01 0.01 0.00 0.00 0.00 0.00 0.00 0.00 0.00 0.00 0.00 0.00 0.00
0.45 0.19 0.20 0.35 0.42 0.37 0.29 0.16 0.13 0.12 0.08 0.07 0.08 0.10 0.17 0.11 0.09 0.09 0.14 0.20 0.11 0.06 0.02 0.02 0.02 0.02 0.02 0.02 0.03 0.03 0.03 0.02 0.00 0.00 0.00 0.00 0.00 0.00 0.00 0.00 0.00 0.00 0.00
0.80 0.39 0.18 0.36 0.49 0.60 0.46 0.24 0.16 0.16 0.16 0.14 0.10 0.09 0.12 0.11 0.11 0.16 0.27 0.23 0.13 0.06 0.03 0.01 0.01 0.01 0.02 0.03 0.03 0.03 0.03 0.02 0.01 0.00 0.00 0.00 0.00 0.00 0.00 0.00 0.00 0.00 0.00
0.76 0.66 0.34 0.33 0.49 0.62 0.73 0.52 0.35 0.22 0.14 0.14 0.19 0.17 0.14 0.13 0.14 0.11 0.18 0.18 0.11 0.08 0.06 0.04 0.04 0.02 0.01 0.02 0.03 0.04 0.04 0.02 0.02 0.01 0.00 0.00 0.00 0.00 0.00 0.00 0.00 0.00 0.00
1.06 0.83 0.62 0.45 0.44 0.55 0.71 0.81 0.65 0.57 0.36 0.23 0.17 0.19 0.20 0.17 0.16 0.20 0.20 0.20 0.13 0.09 0.08 0.06 0.05 0.06 0.03 0.02 0.02 0.02 0.02 0.02 0.02 0.02 0.03 0.01 0.00 0.00 0.00 0.00 0.00 0.00 0.00
0.90 0.70 0.61 0.50 0.39 0.60 0.67 0.77 0.71 0.64 0.65 0.43 0.28 0.22 0.20 0.20 0.27 0.20 0.17 0.23 0.26 0.26 0.19 0.14 0.13 0.13 0.07 0.07 0.07 0.06 0.05 0.05 0.07 0.07 0.06 0.02 0.00 0.00 0.00 0.00 0.00 0.00 0.00
0.59 0.90 0.92 0.75 0.57 0.54 0.75 0.70 0.72 0.69 0.62 0.56 0.42 0.31 0.25 0.19 0.21 0.24 0.24 0.24 0.24 0.28 0.25 0.31 0.34 0.33 0.26 0.20 0.15 0.12 0.12 0.15 0.21 0.22 0.10 0.03 0.00 0.00 0.00 0.00 0.00 0.00 0.00
1.54 1.05 1.20 1.41 1.30 0.96 1.13 1.09 1.18 0.92 0.75 0.67 0.57 0.48 0.34 0.26 0.24 0.20 0.24 0.28 0.29 0.35 0.34 0.34 0.36 0.38 0.36 0.32 0.32 0.34 0.35 0.33 0.29 0.23 0.10 0.04 0.01 0.01 0.00 0.00 0.00 0.00 0.00
2.13 1.71 1.62 1.52 1.90 2.03 1.78 1.75 1.51 1.38 1.27 1.04 0.89 0.73 0.67 0.47 0.29 0.25 0.21 0.26 0.26 0.29 0.36 0.45 0.42 0.36 0.35 0.37 0.37 0.34 0.37 0.45 0.48 0.40 0.25 0.12 0.05 0.02 0.02 0.02 0.01 0.01 0.01
1.49 2.07 2.25 2.34 1.88 1.82 1.78 1.86 2.14 2.15 2.24 2.09 2.06 1.98 1.78 1.46 1.10 0.83 0.58 0.55 0.57 0.59 0.72 0.76 0.49 0.30 0.23 0.22 0.23 0.29 0.42 0.47 0.43 0.38 0.34 0.25 0.11 0.06 0.05 0.06 0.07 0.06 0.04
0.68 1.10 1.73 2.14 2.40 2.43 2.26 2.18 2.16 2.33 2.42 2.50 2.41 2.32 2.12 2.12 1.98 1.57 1.19 0.92 0.73 0.68 0.72 0.76 0.64 0.43 0.35 0.36 0.40 0.43 0.45 0.47 0.52 0.57 0.46 0.31 0.27 0.26 0.24 0.19 0.20 0.17 0.13
0.15 0.37 0.66 0.98 1.40 1.87 2.32 2.33 2.29 2.42 2.38 2.20 1.85 1.72 1.66 1.47 1.39 1.42 1.29 1.05 0.86 0.77 0.67 0.68 0.69 0.62 0.65 0.79 0.90 0.91 0.85 0.78 0.65 0.53 0.44 0.37 0.31 0.28 0.26 0.24 0.23 0.24 0.24
0.01 0.03 0.15 0.36 0.54 0.76 1.08 1.45 1.75 1.84 1.85 1.85 1.85 1.75 1.61 1.59 1.54 1.48 1.38 1.24 1.24 1.23 1.24 1.19 1.16 1.19 1.21 1.25 1.24 1.13 0.96 0.82 0.69 0.60 0.59 0.59 0.59 0.61 0.64 0.59 0.56 0.58 0.57
0.00 0.02 0.02 0.03 0.12 0.29 0.53 0.49 0.59 0.64 0.65 0.72 0.83 1.03 1.24 1.38 1.41 1.43 1.50 1.51 1.49 1.53 1.55 1.45 1.34 1.23 1.13 1.09 1.09 1.11 1.13 1.11 1.05 1.00 0.94 0.92 0.92 0.93 0.88 0.77 0.70 0.63 0.55
0.00 0.01 0.01 0.00 0.00 0.01 0.06 0.12 0.17 0.25 0.34 0.39 0.47 0.57 0.60 0.62 0.76 0.88 1.01 1.10 1.18 1.24 1.27 1.32 1.35 1.30 1.23 1.15 1.07 1.02 0.97 0.94 0.92 0.89 0.85 0.83 0.79 0.75 0.69 0.66 0.64 0.65 0.67
0.00 0.00 0.00 0.00 0.01 0.01 0.01 0.01 0.02 0.04 0.08 0.13 0.16 0.23 0.30 0.26 0.32 0.39 0.49 0.58 0.67 0.77 0.89 0.98 1.06 1.11 1.14 1.17 1.19 1.19 1.14 1.09 1.04 1.02 0.98 0.93 0.89 0.86 0.87 0.86 0.81 0.78 0.74
0.00 0.00 0.00 0.00 0.01 0.02 0.02 0.01 0.01 0.03 0.06 0.09 0.11 0.12 0.15 0.19 0.26 0.35 0.46 0.54 0.57 0.58 0.58 0.57 0.57 0.61 0.70 0.78 0.82 0.83 0.79 0.75 0.77 0.80 0.77 0.72 0.71 0.70 0.68 0.67 0.65 0.63 0.61
0.00 0.00 0.00 0.01 0.01 0.00 0.01 0.01 0.02 0.04 0.03 0.03 0.03 0.04 0.05 0.06 0.10 0.13 0.19 0.24 0.26 0.35 0.40 0.39 0.38 0.38 0.39 0.42 0.45 0.47 0.47 0.45 0.44 0.43 0.44 0.46 0.48 0.58 0.62 0.65 0.65 0.64 0.61
0.00 0.00 0.00 0.00 0.01 0.01 0.01 0.01 0.01 0.02 0.04 0.05 0.07 0.07 0.07 0.06 0.06 0.08 0.10 0.14 0.19 0.24 0.28 0.31 0.32 0.30 0.28 0.25 0.23 0.23 0.31 0.33 0.28 0.31 0.31 0.36 0.37 0.39 0.42 0.44 0.42 0.39 0.36
0.00 0.00 0.00 0.01 0.01 0.02 0.02 0.02 0.02 0.02 0.03 0.04 0.05 0.07 0.08 0.09 0.09 0.09 0.08 0.09 0.12 0.14 0.14 0.13 0.13 0.14 0.15 0.18 0.23 0.26 0.31 0.29 0.31 0.32 0.30 0.29 0.27 0.25 0.25 0.26 0.24 0.24 0.23